Time,TemperatureF,DewpointF,PressureIn,WindDirection,WindDirectionDegrees,WindSpeedMPH,WindSpeedGustMPH,Humidity,HourlyPrecipIn,Conditions,Clouds,dailyrainin,SoftwareType,DateUTC
2013-01-19 00:00:00,39.6,32.7,29.78,SSE,167,6.0,11.0,76,0.00, +TSGR FG,SKC,-99.99,VWS V12.07,2013-01-19 06:00:00,
2013-01-19 00:10:00,39.6,33.0,29.79,South,186,1.0,8.0,77,0.00, +TSGR FG,SKC,-99.99,VWS V12.07,2013-01-19 06:10:00,
2013-01-19 00:15:00,39.5,32.9,29.79,WSW,242,0.0,7.0,77,0.00, +TSGR FG,SKC,-99.99,VWS V12.07,2013-01-19 06:15:00,
2013-01-19 00:20:00,39.4,32.8,29.79,West,271,3.0,10.0,77,0.00, +TSGR FG,SKC,-99.99,VWS V12.07,2013-01-19 06:20:00,
2013-01-19 00:25:00,39.3,32.7,29.80,SSW,202,5.0,6.0,77,0.00, +TSGR FG,SKC,-99.99,VWS V12.07,2013-01-19 06:25:00,
2013-01-19 00:35:00,39.1,32.8,29.80,SW,225,0.0,5.0,78,0.00, +TSGR FG,SKC,-99.99,VWS V12.07,2013-01-19 06:35:00,
2013-01-19 00:40:00,39.0,32.7,29.80,West,263,6.0,7.0,78,0.00, +TSGR FG,SKC,-99.99,VWS V12.07,2013-01-19 06:40:00,
2013-01-19 00:45:00,39.1,32.8,29.80,WSW,238,5.0,7.0,78,0.00, +TSGR FG,SKC,-99.99,VWS V12.07,2013-01-19 06:45:00,
2013-01-19 00:50:00,39.1,32.8,29.80,WSW,252,1.0,7.0,78,0.00, +TSGR FG,SKC,-99.99,VWS V12.07,2013-01-19 06:50:00,
2013-01-19 00:55:00,38.9,32.6,29.80,WSW,242,1.0,5.0,78,0.00, +TSGR FG,SKC,-99.99,VWS V12.07,2013-01-19 06:55:00,
2013-01-19 01:00:00,38.9,33.0,29.80,SSW,198,2.0,7.0,79,0.00, +TSGR FG,SKC,-99.99,VWS V12.07,2013-01-19 07:00:00,
2013-01-19 01:05:00,39.1,32.8,29.80,WSW,246,2.0,10.0,78,0.00, +TSGR FG,SKC,-99.99,VWS V12.07,2013-01-19 07:05:00,
2013-01-19 01:10:00,39.1,32.8,29.80,South,171,2.0,10.0,78,0.00, +TSGR FG,SKC,-99.99,VWS V12.07,2013-01-19 07:10:00,
2013-01-19 01:15:00,39.0,32.7,29.80,SSW,209,0.0,9.0,78,0.00, +TSGR FG,SKC,-99.99,VWS V12.07,2013-01-19 07:15:00,
2013-01-19 01:20:00,38.9,33.0,29.80,West,259,2.0,9.0,79,0.00, +TSGR FG,SKC,-99.99,VWS V12.07,2013-01-19 07:20:00,
2013-01-19 01:25:00,38.8,32.9,29.80,WSW,239,5.0,6.0,79,0.00, +TSGR FG,SKC,-99.99,VWS V12.07,2013-01-19 07:25:00,
2013-01-19 01:35:00,38.8,32.9,29.80,SSW,213,2.0,6.0,79,0.00, +TSGR FG,SKC,-99.99,VWS V12.07,2013-01-19 07:35:00,
2013-01-19 01:40:00,38.7,32.8,29.80,SW,223,2.0,6.0,79,0.00, +TSGR FG,SKC,-99.99,VWS V12.07,2013-01-19 07:40:00,
2013-01-19 01:45:00,38.7,32.8,29.80,South,188,1.0,10.0,79,0.00, +TSGR FG,SKC,-99.99,VWS V12.07,2013-01-19 07:45:00,
2013-01-19 01:50:00,38.6,33.0,29.81,South,186,6.0,10.0,80,0.00, +TSGR FG,SKC,-99.99,VWS V12.07,2013-01-19 07:50:00,
2013-01-19 01:55:00,38.7,33.1,29.81,SSW,202,4.0,8.0,80,0.00, +TSGR FG,SKC,-99.99,VWS V12.07,2013-01-19 07:55:00,
2013-01-19 02:00:00,38.7,33.1,29.81,SW,215,2.0,9.0,80,0.00, +TSGR FG,SKC,-99.99,VWS V12.07,2013-01-19 08:00:00,
2013-01-19 02:05:00,38.7,33.1,29.81,SW,231,2.0,4.0,80,0.00, +TSGR FG,SKC,-99.99,VWS V12.07,2013-01-19 08:05:00,
2013-01-19 02:10:00,38.7,33.1,29.81,South,184,2.0,7.0,80,0.00, +TSGR FG,SKC,-99.99,VWS V12.07,2013-01-19 08:10:00,
2013-01-19 02:15:00,38.8,33.2,29.81,SSW,200,3.0,12.0,80,0.00, +TSGR FG,SKC,-99.99,VWS V12.07,2013-01-19 08:15:00,
2013-01-19 02:20:00,38.8,33.2,29.81,WSW,248,2.0,12.0,80,0.00, +TSGR FG,SKC,-99.99,VWS V12.07,2013-01-19 08:20:00,
2013-01-19 02:25:00,38.9,33.3,29.81,SSE,159,4.0,8.0,80,0.00, +TSGR FG,SKC,-99.99,VWS V12.07,2013-01-19 08:25:00,
2013-01-19 02:30:00,38.9,33.3,29.81,SW,236,2.0,10.0,80,0.00, +TSGR FG,SKC,-99.99,VWS V12.07,2013-01-19 08:30:00,
2013-01-19 02:35:00,39.0,33.0,29.80,South,190,4.0,9.0,79,0.00, +TSGR FG,SKC,-99.99,VWS V12.07,2013-01-19 08:35:00,
2013-01-19 02:40:00,39.0,33.0,29.80,West,281,2.0,9.0,79,0.00, +TSGR FG,SKC,-99.99,VWS V12.07,2013-01-19 08:40:00,
2013-01-19 02:45:00,39.0,33.0,29.80,SW,231,3.0,6.0,79,0.00, +TSGR FG,SKC,-99.99,VWS V12.07,2013-01-19 08:45:00,
2013-01-19 02:50:00,39.0,33.0,29.80,West,263,3.0,6.0,79,0.00, +TSGR FG,SKC,-99.99,VWS V12.07,2013-01-19 08:50:00,
2013-01-19 02:55:00,39.0,33.4,29.80,SSW,202,2.0,9.0,80,0.00, +TSGR FG,SKC,-99.99,VWS V12.07,2013-01-19 08:55:00,
2013-01-19 03:00:00,39.1,33.2,29.80,SW,222,1.0,12.0,79,0.00, +TSGR FG,SKC,-99.99,VWS V12.07,2013-01-19 09:00:00,
2013-01-19 03:05:00,39.1,33.2,29.80,SSW,204,5.0,8.0,79,0.00, +TSGR FG,SKC,-99.99,VWS V12.07,2013-01-19 09:05:00,
2013-01-19 03:10:00,39.2,33.2,29.79,SSW,205,2.0,10.0,79,0.00, +TSGR FG,SKC,-99.99,VWS V12.07,2013-01-19 09:10:00,
2013-01-19 03:15:00,39.3,33.3,29.80,South,176,2.0,11.0,79,0.00, +TSGR FG,SKC,-99.99,VWS V12.07,2013-01-19 09:15:00,
2013-01-19 03:20:00,39.2,33.2,29.79,SW,227,1.0,11.0,79,0.00, +TSGR FG,SKC,-99.99,VWS V12.07,2013-01-19 09:20:00,
2013-01-19 03:25:00,39.4,33.4,29.80,SW,229,7.0,10.0,79,0.01, +TSGR FG,SKC,-99.99,VWS V12.07,2013-01-19 09:25:00,
2013-01-19 03:30:00,39.4,33.4,29.79,SW,219,4.0,10.0,79,0.01, +TSGR FG,SKC,-99.99,VWS V12.07,2013-01-19 09:30:00,
2013-01-19 03:35:00,39.5,33.5,29.79,SW,217,5.0,7.0,79,0.01, +TSGR FG,SKC,-99.99,VWS V12.07,2013-01-19 09:35:00,
2013-01-19 03:40:00,39.5,33.5,29.79,SW,236,4.0,8.0,79,0.01, +TSGR FG,SKC,-99.99,VWS V12.07,2013-01-19 09:40:00,
2013-01-19 03:45:00,39.5,33.5,29.79,WSW,251,2.0,12.0,79,0.01, +TSGR FG,SKC,-99.99,VWS V12.07,2013-01-19 09:45:00,
2013-01-19 03:50:00,39.5,33.5,29.79,SSW,202,3.0,12.0,79,0.01, +TSGR FG,SKC,-99.99,VWS V12.07,2013-01-19 09:50:00,
2013-01-19 03:55:00,39.4,33.4,29.79,WNW,286,2.0,4.0,79,0.01, +TSGR FG,SKC,-99.99,VWS V12.07,2013-01-19 09:55:00,
2013-01-19 04:00:00,39.3,33.3,29.79,WSW,252,2.0,7.0,79,0.01, +TSGR FG,SKC,-99.99,VWS V12.07,2013-01-19 10:00:00,
2013-01-19 04:05:00,39.3,33.7,29.79,SW,217,1.0,9.0,80,0.01, +TSGR FG,SKC,-99.99,VWS V12.07,2013-01-19 10:05:00,
2013-01-19 04:10:00,39.3,33.7,29.79,South,190,3.0,9.0,80,0.01, +TSGR FG,SKC,-99.99,VWS V12.07,2013-01-19 10:10:00,
2013-01-19 04:15:00,39.2,33.6,29.79,SW,215,1.0,7.0,80,0.01, +TSGR FG,SKC,-99.99,VWS V12.07,2013-01-19 10:15:00,
2013-01-19 04:20:00,39.2,33.6,29.79,SSW,201,3.0,10.0,80,0.01, +TSGR FG,SKC,-99.99,VWS V12.07,2013-01-19 10:20:00,
2013-01-19 04:25:00,39.1,33.5,29.79,WSW,246,1.0,11.0,80,0.01, +TSGR FG,SKC,-99.99,VWS V12.07,2013-01-19 10:25:00,
2013-01-19 04:30:00,39.1,33.5,29.79,WSW,254,1.0,11.0,80,0.01, +TSGR FG,SKC,-99.99,VWS V12.07,2013-01-19 10:30:00,
2013-01-19 04:35:00,39.0,33.4,29.79,SW,218,3.0,3.0,80,0.00, +TSGR FG,SKC,-99.99,VWS V12.07,2013-01-19 10:35:00,
2013-01-19 04:40:00,39.0,33.4,29.79,SSW,197,3.0,8.0,80,0.00, +TSGR FG,SKC,-99.99,VWS V12.07,2013-01-19 10:40:00,
2013-01-19 04:45:00,39.0,33.4,29.79,WSW,257,8.0,8.0,80,0.00, +TSGR FG,SKC,-99.99,VWS V12.07,2013-01-19 10:45:00,
2013-01-19 04:50:00,38.9,33.3,29.79,WSW,240,3.0,8.0,80,0.00, +TSGR FG,SKC,-99.99,VWS V12.07,2013-01-19 10:50:00,
2013-01-19 04:55:00,38.9,33.3,29.78,West,269,1.0,8.0,80,0.00, +TSGR FG,SKC,-99.99,VWS V12.07,2013-01-19 10:55:00,
2013-01-19 05:00:00,38.8,33.2,29.78,West,259,3.0,8.0,80,0.00, +TSGR FG,SKC,-99.99,VWS V12.07,2013-01-19 11:00:00,
2013-01-19 05:05:00,38.7,33.4,29.77,WSW,243,2.0,8.0,81,0.00, +TSGR FG,SKC,-99.99,VWS V12.07,2013-01-19 11:05:00,
2013-01-19 05:10:00,38.6,33.3,29.78,SSW,202,1.0,8.0,81,0.00, +TSGR FG,SKC,-99.99,VWS V12.07,2013-01-19 11:10:00,
2013-01-19 05:15:00,38.5,33.2,29.77,SW,231,4.0,7.0,81,0.00, +TSGR FG,SKC,-99.99,VWS V12.07,2013-01-19 11:15:00,
2013-01-19 06:50:00,39.1,33.8,29.77,WSW,240,1.0,5.0,81,0.00, +TSGR FG,SKC,-99.99,VWS V12.07,2013-01-19 12:50:00,
2013-01-19 06:55:00,39.1,33.8,29.77,SSW,194,2.0,7.0,81,0.00, +TSGR FG,SKC,-99.99,VWS V12.07,2013-01-19 12:55:00,
2013-01-19 07:00:00,39.3,33.7,29.77,WSW,246,0.0,7.0,80,0.00, +TSGR FG,SKC,-99.99,VWS V12.07,2013-01-19 13:00:00,
2013-01-19 07:05:00,39.3,33.7,29.77,SW,231,3.0,3.0,80,0.00, +TSGR FG,SKC,-99.99,VWS V12.07,2013-01-19 13:05:00,
2013-01-19 07:10:00,39.3,33.7,29.77,SSW,204,0.0,5.0,80,0.00, +TSGR FG,SKC,-99.99,VWS V12.07,2013-01-19 13:10:00,
2013-01-19 07:15:00,39.4,33.8,29.77,SW,221,3.0,5.0,80,0.00, +TSGR FG,SKC,-99.99,VWS V12.07,2013-01-19 13:15:00,
2013-01-19 07:20:00,39.5,33.8,29.77,SSW,192,3.0,7.0,80,0.00, +TSGR FG,SKC,-99.99,VWS V12.07,2013-01-19 13:20:00,
2013-01-19 07:25:00,39.5,33.8,29.77,SW,221,4.0,7.0,80,0.00, +TSGR FG,SKC,-99.99,VWS V12.07,2013-01-19 13:25:00,
2013-01-19 07:30:00,39.5,33.8,29.77,South,187,2.0,7.0,80,0.00, +TSGR FG,SKC,-99.99,VWS V12.07,2013-01-19 13:30:00,
2013-01-19 07:35:00,39.5,33.8,29.77,South,186,0.0,6.0,80,0.00, +TSGR FG,SKC,-99.99,VWS V12.07,2013-01-19 13:35:00,
2013-01-19 07:40:00,39.3,33.7,29.77,West,274,2.0,6.0,80,0.00, +TSGR FG,SKC,-99.99,VWS V12.07,2013-01-19 13:40:00,
2013-01-19 07:50:00,39.1,33.8,29.76,WSW,251,1.0,5.0,81,0.00, +TSGR FG,SKC,-99.99,VWS V12.07,2013-01-19 13:50:00,
2013-01-19 07:55:00,39.0,33.7,29.76,SSW,201,3.0,4.0,81,0.00, +TSGR FG,SKC,-99.99,VWS V12.07,2013-01-19 13:55:00,
2013-01-19 08:00:00,38.9,33.6,29.76,SSW,196,3.0,7.0,81,0.00, +TSGR FG,SKC,-99.99,VWS V12.07,2013-01-19 14:00:00,
2013-01-19 08:05:00,38.8,33.5,29.76,South,184,3.0,5.0,81,0.00, +TSGR FG,SKC,-99.99,VWS V12.07,2013-01-19 14:05:00,
2013-01-19 08:10:00,38.7,33.4,29.76,WSW,254,6.0,7.0,81,0.00, +TSGR FG,SKC,-99.99,VWS V12.07,2013-01-19 14:10:00,
2013-01-19 08:15:00,38.7,33.7,29.76,SSW,197,5.0,9.0,82,0.00, +TSGR FG,SKC,-99.99,VWS V12.07,2013-01-19 14:15:00,
2013-01-19 08:25:00,38.7,33.4,29.76,SW,235,4.0,10.0,81,0.00, +TSGR FG,SKC,-99.99,VWS V12.07,2013-01-19 14:25:00,
2013-01-19 08:30:00,38.7,33.4,29.75,South,184,4.0,10.0,81,0.00, +TSGR FG,SKC,-99.99,VWS V12.07,2013-01-19 14:30:00,
2013-01-19 08:40:00,38.9,33.6,29.76,SSW,207,1.0,11.0,81,0.00, +TSGR FG,SKC,-99.99,VWS V12.07,2013-01-19 14:40:00,
2013-01-19 08:45:00,39.0,33.7,29.76,South,177,4.0,7.0,81,0.00, +TSGR FG,SKC,-99.99,VWS V12.07,2013-01-19 14:45:00,
2013-01-19 08:55:00,39.2,33.9,29.75,SSW,209,2.0,7.0,81,0.00, +TSGR FG,SKC,-99.99,VWS V12.07,2013-01-19 14:55:00,
2013-01-19 09:00:00,39.3,33.7,29.75,SSW,212,3.0,10.0,80,0.00, +TSGR FG,SKC,-99.99,VWS V12.07,2013-01-19 15:00:00,
2013-01-19 09:05:00,39.3,33.7,29.75,SW,225,2.0,8.0,80,0.00, +TSGR FG,SKC,-99.99,VWS V12.07,2013-01-19 15:05:00,
2013-01-19 09:10:00,39.3,33.7,29.76,WSW,246,2.0,8.0,80,0.00, +TSGR FG,SKC,-99.99,VWS V12.07,2013-01-19 15:10:00,
2013-01-19 09:15:00,39.3,33.7,29.75,SSW,205,2.0,8.0,80,0.00, +TSGR FG,SKC,-99.99,VWS V12.07,2013-01-19 15:15:00,
2013-01-19 09:20:00,39.3,33.7,29.75,SSW,198,0.0,8.0,80,0.00, +TSGR FG,SKC,-99.99,VWS V12.07,2013-01-19 15:20:00,
2013-01-19 09:25:00,39.4,33.8,29.75,South,182,3.0,8.0,80,0.00, +TSGR FG,SKC,-99.99,VWS V12.07,2013-01-19 15:25:00,
2013-01-19 09:30:00,39.5,33.8,29.75,SSE,151,4.0,8.0,80,0.00, +TSGR FG,SKC,-99.99,VWS V12.07,2013-01-19 15:30:00,
2013-01-19 09:35:00,39.5,33.8,29.75,South,179,1.0,8.0,80,0.00, +TSGR FG,SKC,-99.99,VWS V12.07,2013-01-19 15:35:00,
2013-01-19 09:40:00,39.6,34.0,29.74,South,185,5.0,8.0,80,0.00, +TSGR FG,SKC,-99.99,VWS V12.07,2013-01-19 15:40:00,
2013-01-19 09:50:00,39.8,33.8,29.74,South,186,4.0,9.0,79,0.00, +TSGR FG,SKC,-99.99,VWS V12.07,2013-01-19 15:50:00,
2013-01-19 09:55:00,39.9,33.9,29.73,South,182,2.0,10.0,79,0.00, +TSGR FG,SKC,-99.99,VWS V12.07,2013-01-19 15:55:00,
2013-01-19 10:00:00,40.0,34.0,29.73,SW,217,5.0,11.0,79,0.00, +TSGR FG,SKC,-99.99,VWS V12.07,2013-01-19 16:00:00,
2013-01-19 10:05:00,40.2,33.9,29.74,SW,232,7.0,12.0,78,0.00, +TSGR FG,SKC,-99.99,VWS V12.07,2013-01-19 16:05:00,
2013-01-19 10:15:00,40.5,34.2,29.72,South,190,3.0,12.0,78,0.00, +TSGR FG,SKC,-99.99,VWS V12.07,2013-01-19 16:15:00,
2013-01-19 10:20:00,40.6,34.0,29.72,West,281,2.0,12.0,77,0.00, +TSGR FG,SKC,-99.99,VWS V12.07,2013-01-19 16:20:00,
2013-01-19 10:25:00,40.6,34.0,29.72,SW,222,3.0,9.0,77,0.00, +TSGR FG,SKC,-99.99,VWS V12.07,2013-01-19 16:25:00,
2013-01-19 10:30:00,40.7,34.1,29.71,SSW,192,1.0,10.0,77,0.00, +TSGR FG,SKC,-99.99,VWS V12.07,2013-01-19 16:30:00,
2013-01-19 10:40:00,40.8,34.2,29.71,SW,219,7.0,12.0,77,0.00, +TSGR FG,SKC,-99.99,VWS V12.07,2013-01-19 16:40:00,
2013-01-19 10:45:00,40.9,34.3,29.70,SW,228,2.0,8.0,77,0.00, +TSGR FG,SKC,-99.99,VWS V12.07,2013-01-19 16:45:00,
2013-01-19 10:50:00,40.9,34.3,29.70,SSW,213,2.0,10.0,77,0.00, +TSGR FG,SKC,-99.99,VWS V12.07,2013-01-19 16:50:00,
2013-01-19 10:55:00,41.0,34.3,29.69,SSW,206,4.0,11.0,77,0.00, +TSGR FG,SKC,-99.99,VWS V12.07,2013-01-19 16:55:00,
2013-01-19 11:00:00,41.0,34.3,29.69,WSW,254,2.0,11.0,77,0.00, +TSGR FG,SKC,-99.99,VWS V12.07,2013-01-19 17:00:00,
2013-01-19 11:05:00,41.1,34.1,29.69,SSW,200,3.0,10.0,76,0.00, +TSGR FG,SKC,-99.99,VWS V12.07,2013-01-19 17:05:00,
2013-01-19 11:10:00,41.2,34.2,29.68,SW,229,4.0,10.0,76,0.00, +TSGR FG,SKC,-99.99,VWS V12.07,2013-01-19 17:10:00,
2013-01-19 11:15:00,41.3,34.3,29.68,SSW,197,7.0,13.0,76,0.00, +TSGR FG,SKC,-99.99,VWS V12.07,2013-01-19 17:15:00,
2013-01-19 11:25:00,41.3,34.3,29.68,SSW,192,6.0,9.0,76,0.00, +TSGR FG,SKC,-99.99,VWS V12.07,2013-01-19 17:25:00,
2013-01-19 11:35:00,41.5,34.5,29.67,SSW,201,5.0,9.0,76,0.00, +TSGR FG,SKC,-99.99,VWS V12.07,2013-01-19 17:35:00,
2013-01-19 11:40:00,41.6,34.6,29.66,WSW,251,3.0,9.0,76,0.00, +TSGR FG,SKC,-99.99,VWS V12.07,2013-01-19 17:40:00,
2013-01-19 12:00:00,42.2,34.9,29.64,WNW,286,7.0,10.0,75,0.00, +TSGR FG,SKC,-99.99,VWS V12.07,2013-01-19 18:00:00,
2013-01-19 12:20:00,42.6,34.9,29.64,WSW,241,8.0,14.0,74,0.00, +TSGR FG,SKC,-99.99,VWS V12.07,2013-01-19 18:20:00,
2013-01-19 12:25:00,42.5,34.8,29.64,SSW,203,5.0,10.0,74,0.00, +TSGR FG,SKC,-99.99,VWS V12.07,2013-01-19 18:25:00,
2013-01-19 12:40:00,42.4,35.0,29.62,SW,218,4.0,13.0,75,0.00, +TSGR FG,SKC,-99.99,VWS V12.07,2013-01-19 18:40:00,
2013-01-19 12:45:00,42.6,34.9,29.61,South,186,7.0,11.0,74,0.00, +TSGR FG,SKC,-99.99,VWS V12.07,2013-01-19 18:45:00,
2013-01-19 12:50:00,42.7,35.0,29.61,SSE,160,2.0,11.0,74,0.00, +TSGR FG,SKC,-99.99,VWS V12.07,2013-01-19 18:50:00,
2013-01-19 13:00:00,42.9,35.2,29.61,WSW,250,4.0,14.0,74,0.00, +TSGR FG,SKC,-99.99,VWS V12.07,2013-01-19 19:00:00,
2013-01-19 13:10:00,43.1,35.0,29.61,SW,221,1.0,9.0,73,0.00, +TSGR FG,SKC,-99.99,VWS V12.07,2013-01-19 19:10:00,
2013-01-19 13:20:00,43.1,35.0,29.60,SW,233,4.0,13.0,73,0.00, +TSGR FG,SKC,-99.99,VWS V12.07,2013-01-19 19:20:00,
2013-01-19 13:25:00,43.0,35.0,29.60,WSW,247,4.0,9.0,73,0.00, +TSGR FG,SKC,-99.99,VWS V12.07,2013-01-19 19:25:00,
2013-01-19 13:35:00,43.1,35.0,29.60,South,189,5.0,10.0,73,0.00, +TSGR FG,SKC,-99.99,VWS V12.07,2013-01-19 19:35:00,
2013-01-19 13:45:00,43.2,35.1,29.59,SW,216,6.0,10.0,73,0.00, +TSGR FG,SKC,-99.99,VWS V12.07,2013-01-19 19:45:00,
2013-01-19 14:00:00,43.2,35.1,29.59,West,273,1.0,16.0,73,0.00, +TSGR FG,SKC,-99.99,VWS V12.07,2013-01-19 20:00:00,
2013-01-19 14:05:00,43.2,35.1,29.59,SSW,194,3.0,9.0,73,0.00, +TSGR FG,SKC,-99.99,VWS V12.07,2013-01-19 20:05:00,
2013-01-19 14:10:00,43.1,35.0,29.59,West,259,4.0,9.0,73,0.00, +TSGR FG,SKC,-99.99,VWS V12.07,2013-01-19 20:10:00,
2013-01-19 14:20:00,43.2,35.5,29.60,SSW,201,3.0,9.0,74,0.00, +TSGR FG,SKC,-99.99,VWS V12.07,2013-01-19 20:20:00,
2013-01-19 14:25:00,43.7,35.6,29.60,WSW,252,1.0,13.0,73,0.00, +TSGR FG,SKC,-99.99,VWS V12.07,2013-01-19 20:25:00,
2013-01-19 14:30:00,44.0,35.9,29.59,WSW,245,4.0,13.0,73,0.00, +TSGR FG,SKC,-99.99,VWS V12.07,2013-01-19 20:30:00,
2013-01-19 14:35:00,44.3,35.9,29.59,SSW,207,3.0,12.0,72,0.00, +TSGR FG,SKC,-99.99,VWS V12.07,2013-01-19 20:35:00,
2013-01-19 14:40:00,44.7,36.2,29.58,SSW,207,2.0,12.0,72,0.00, +TSGR FG,SKC,-99.99,VWS V12.07,2013-01-19 20:40:00,
2013-01-19 14:45:00,45.1,35.9,29.58,SSE,157,4.0,8.0,70,0.00, +TSGR FG,SKC,-99.99,VWS V12.07,2013-01-19 20:45:00,
2013-01-19 14:50:00,44.6,35.4,29.59,SW,225,4.0,11.0,70,0.00, +TSGR FG,SKC,-99.99,VWS V12.07,2013-01-19 20:50:00,
2013-01-19 15:00:00,44.0,35.6,29.58,West,269,3.0,13.0,72,0.00, +TSGR FG,SKC,-99.99,VWS V12.07,2013-01-19 21:00:00,
2013-01-19 15:05:00,44.0,35.6,29.58,SSW,209,2.0,9.0,72,0.00, +TSGR FG,SKC,-99.99,VWS V12.07,2013-01-19 21:05:00,
2013-01-19 15:15:00,44.3,35.9,29.58,SSW,201,2.0,6.0,72,0.00, +TSGR FG,SKC,-99.99,VWS V12.07,2013-01-19 21:15:00,
2013-01-19 15:20:00,44.0,35.6,29.58,SSW,200,4.0,11.0,72,0.00, +TSGR FG,SKC,-99.99,VWS V12.07,2013-01-19 21:20:00,
2013-01-19 15:30:00,43.6,35.5,29.58,WSW,252,3.0,10.0,73,0.00, +TSGR FG,SKC,-99.99,VWS V12.07,2013-01-19 21:30:00,
2013-01-19 15:35:00,43.5,35.4,29.58,West,259,2.0,9.0,73,0.00, +TSGR FG,SKC,-99.99,VWS V12.07,2013-01-19 21:35:00,
2013-01-19 15:45:00,43.6,35.9,29.59,SSE,167,4.0,11.0,74,0.00, +TSGR FG,SKC,-99.99,VWS V12.07,2013-01-19 21:45:00,
2013-01-19 16:00:00,43.6,35.9,29.60,WNW,286,4.0,9.0,74,0.00, +TSGR FG,SKC,-99.99,VWS V12.07,2013-01-19 22:00:00,
2013-01-19 16:05:00,43.7,35.6,29.60,WNW,298,2.0,8.0,73,0.00, +TSGR FG,SKC,-99.99,VWS V12.07,2013-01-19 22:05:00,
2013-01-19 16:15:00,43.8,35.7,29.60,WSW,240,1.0,10.0,73,0.00, +TSGR FG,SKC,-99.99,VWS V12.07,2013-01-19 22:15:00,
2013-01-19 16:20:00,43.8,35.4,29.59,South,190,4.0,17.0,72,0.00, +TSGR FG,SKC,-99.99,VWS V12.07,2013-01-19 22:20:00,
2013-01-19 16:25:00,43.7,35.3,29.59,SW,219,6.0,10.0,72,0.00, +TSGR FG,SKC,-99.99,VWS V12.07,2013-01-19 22:25:00,
2013-01-19 16:35:00,43.4,35.0,29.59,WSW,237,2.0,9.0,72,0.00, +TSGR FG,SKC,-99.99,VWS V12.07,2013-01-19 22:35:00,
2013-01-19 16:40:00,43.4,35.3,29.59,SSW,202,2.0,10.0,73,0.00, +TSGR FG,SKC,-99.99,VWS V12.07,2013-01-19 22:40:00,
2013-01-19 16:50:00,43.2,35.1,29.60,South,175,5.0,14.0,73,0.00, +TSGR FG,SKC,-99.99,VWS V12.07,2013-01-19 22:50:00,
2013-01-19 16:55:00,43.1,35.0,29.60,East,98,2.0,9.0,73,0.00, +TSGR FG,SKC,-99.99,VWS V12.07,2013-01-19 22:55:00,
2013-01-19 17:05:00,43.1,35.0,29.60,WSW,244,6.0,11.0,73,0.00, +TSGR FG,SKC,-99.99,VWS V12.07,2013-01-19 23:05:00,
2013-01-19 17:15:00,43.1,35.0,29.59,SW,236,2.0,6.0,73,0.00, +TSGR FG,SKC,-99.99,VWS V12.07,2013-01-19 23:15:00,
2013-01-19 17:20:00,43.0,35.3,29.60,South,186,5.0,9.0,74,0.00, +TSGR FG,SKC,-99.99,VWS V12.07,2013-01-19 23:20:00,
2013-01-19 17:25:00,43.1,35.4,29.61,South,191,4.0,7.0,74,0.00, +TSGR FG,SKC,-99.99,VWS V12.07,2013-01-19 23:25:00,
2013-01-19 17:30:00,43.2,35.1,29.61,WSW,252,4.0,8.0,73,0.00, +TSGR FG,SKC,-99.99,VWS V12.07,2013-01-19 23:30:00,
2013-01-19 17:35:00,43.1,35.0,29.61,SW,221,1.0,12.0,73,0.00, +TSGR FG,SKC,-99.99,VWS V12.07,2013-01-19 23:35:00,
2013-01-19 17:40:00,43.1,35.0,29.60,WSW,247,4.0,12.0,73,0.00, +TSGR FG,SKC,-99.99,VWS V12.07,2013-01-19 23:40:00,
2013-01-19 17:45:00,43.0,35.0,29.60,SSW,202,4.0,6.0,73,0.00, +TSGR FG,SKC,-99.99,VWS V12.07,2013-01-19 23:45:00,
2013-01-19 17:50:00,42.9,34.8,29.60,West,267,1.0,10.0,73,0.00, +TSGR FG,SKC,-99.99,VWS V12.07,2013-01-19 23:50:00,
2013-01-19 18:00:00,42.8,34.8,29.59,West,261,3.0,8.0,73,0.00, +TSGR FG,SKC,-99.99,VWS V12.07,2013-01-20 00:00:00,
2013-01-19 18:10:00,42.9,34.8,29.59,West,267,4.0,11.0,73,0.00, +TSGR FG,SKC,-99.99,VWS V12.07,2013-01-20 00:10:00,
2013-01-19 18:15:00,42.9,34.8,29.58,WSW,241,2.0,16.0,73,0.00, +TSGR FG,SKC,-99.99,VWS V12.07,2013-01-20 00:15:00,
2013-01-19 18:20:00,42.8,34.8,29.58,SW,234,2.0,16.0,73,0.00, +TSGR FG,SKC,-99.99,VWS V12.07,2013-01-20 00:20:00,
2013-01-19 18:25:00,42.9,34.8,29.59,WSW,257,5.0,11.0,73,0.00, +TSGR FG,SKC,-99.99,VWS V12.07,2013-01-20 00:25:00,
2013-01-19 18:35:00,42.9,34.8,29.59,WSW,257,1.0,10.0,73,0.00, +TSGR FG,SKC,-99.99,VWS V12.07,2013-01-20 00:35:00,
2013-01-19 18:40:00,42.8,34.4,29.59,NW,309,2.0,10.0,72,0.00, +TSGR FG,SKC,-99.99,VWS V12.07,2013-01-20 00:40:00,
2013-01-19 18:50:00,42.7,34.3,29.60,WNW,288,3.0,14.0,72,0.00, +TSGR FG,SKC,-99.99,VWS V12.07,2013-01-20 00:50:00,
2013-01-19 18:55:00,42.7,34.3,29.60,WSW,240,0.0,8.0,72,0.00, +TSGR FG,SKC,-99.99,VWS V12.07,2013-01-20 00:55:00,
2013-01-19 19:00:00,42.5,34.1,29.60,WNW,294,0.0,9.0,72,0.00, +TSGR FG,SKC,-99.99,VWS V12.07,2013-01-20 01:00:00,
2013-01-19 19:05:00,42.3,34.3,29.60,WNW,289,0.0,5.0,73,0.00, +TSGR FG,SKC,-99.99,VWS V12.07,2013-01-20 01:05:00,
2013-01-19 19:15:00,41.9,33.9,29.59,South,175,7.0,7.0,73,0.00, +TSGR FG,SKC,-99.99,VWS V12.07,2013-01-20 01:15:00,
2013-01-19 19:20:00,41.8,33.5,29.60,West,261,2.0,9.0,72,0.00, +TSGR FG,SKC,-99.99,VWS V12.07,2013-01-20 01:20:00,
2013-01-19 19:30:00,41.9,32.5,29.59,West,267,3.0,11.0,69,0.00, +TSGR FG,SKC,-99.99,VWS V12.07,2013-01-20 01:30:00,
2013-01-19 19:35:00,41.8,31.7,29.59,SSE,153,8.0,12.0,67,0.00, +TSGR FG,SKC,-99.99,VWS V12.07,2013-01-20 01:35:00,
2013-01-19 19:40:00,41.8,31.3,29.60,WSW,237,10.0,15.0,66,0.00, +TSGR FG,SKC,-99.99,VWS V12.07,2013-01-20 01:40:00,
2013-01-19 19:55:00,41.7,28.0,29.60,SSW,207,5.0,26.0,58,0.00, +TSGR FG,SKC,-99.99,VWS V12.07,2013-01-20 01:55:00,
2013-01-19 20:00:00,41.4,27.8,29.60,NNW,327,5.0,26.0,58,0.00, +TSGR FG,SKC,-99.99,VWS V12.07,2013-01-20 02:00:00,
2013-01-19 20:10:00,40.7,25.8,29.59,West,266,6.0,24.0,55,0.00, +TSGR FG,SKC,-99.99,VWS V12.07,2013-01-20 02:10:00,
2013-01-19 20:15:00,40.5,25.6,29.59,West,277,5.0,15.0,55,0.00, +TSGR FG,SKC,-99.99,VWS V12.07,2013-01-20 02:15:00,
2013-01-19 20:25:00,40.1,24.8,29.59,WNW,299,10.0,13.0,54,0.00, +TSGR FG,SKC,-99.99,VWS V12.07,2013-01-20 02:25:00,
2013-01-19 20:30:00,40.0,22.9,29.59,SW,219,6.0,16.0,50,0.00, +TSGR FG,SKC,-99.99,VWS V12.07,2013-01-20 02:30:00,
2013-01-19 20:40:00,39.6,19.5,29.59,NW,315,5.0,20.0,44,0.00, +TSGR FG,SKC,-99.99,VWS V12.07,2013-01-20 02:40:00,
2013-01-19 20:45:00,39.2,16.9,29.60,West,280,2.0,22.0,40,0.00, +TSGR FG,SKC,-99.99,VWS V12.07,2013-01-20 02:45:00,
2013-01-19 20:50:00,38.7,17.0,29.60,West,266,6.0,22.0,41,0.00, +TSGR FG,SKC,-99.99,VWS V12.07,2013-01-20 02:50:00,
2013-01-19 21:00:00,37.7,16.1,29.60,WNW,296,3.0,14.0,41,0.00, +TSGR FG,SKC,-99.99,VWS V12.07,2013-01-20 03:00:00,
2013-01-19 21:05:00,37.3,15.2,29.61,West,275,4.0,17.0,40,0.00, +TSGR FG,SKC,-99.99,VWS V12.07,2013-01-20 03:05:00,
2013-01-19 21:15:00,36.2,15.3,29.62,West,274,13.0,16.0,42,0.00, +TSGR FG,SKC,-99.99,VWS V12.07,2013-01-20 03:15:00,
2013-01-19 21:20:00,35.4,15.7,29.62,WSW,252,3.0,16.0,44,0.00, +TSGR FG,SKC,-99.99,VWS V12.07,2013-01-20 03:20:00,
2013-01-19 21:25:00,34.8,15.6,29.63,WSW,257,10.0,21.0,45,0.00, +TSGR FG,SKC,-99.99,VWS V12.07,2013-01-20 03:25:00,
2013-01-19 21:35:00,32.3,12.3,29.66,West,281,7.0,16.0,43,0.00, +TSGR FG,SKC,-99.99,VWS V12.07,2013-01-20 03:35:00,
2013-01-19 21:40:00,31.3,12.9,29.66,North,350,6.0,16.0,46,0.00, +TSGR FG,SKC,-99.99,VWS V12.07,2013-01-20 03:40:00,
2013-01-19 21:50:00,29.9,13.5,29.68,WNW,288,6.0,23.0,50,0.00, +TSGR FG,SKC,-99.99,VWS V12.07,2013-01-20 03:50:00,
2013-01-19 22:00:00,27.9,13.0,29.70,WSW,239,5.0,22.0,53,0.00, +TSGR FG,SKC,-99.99,VWS V12.07,2013-01-20 04:00:00,
2013-01-19 22:05:00,27.5,13.5,29.71,WNW,294,4.0,13.0,55,0.00, +TSGR FG,SKC,-99.99,VWS V12.07,2013-01-20 04:05:00,
2013-01-19 22:10:00,27.1,13.9,29.72,WSW,256,3.0,20.0,57,0.00, +TSGR FG,SKC,-99.99,VWS V12.07,2013-01-20 04:10:00,
2013-01-19 22:15:00,26.5,13.7,29.72,West,279,8.0,13.0,58,0.00, +TSGR FG,SKC,-99.99,VWS V12.07,2013-01-20 04:15:00,
2013-01-19 22:25:00,25.5,13.2,29.74,NW,319,5.0,13.0,59,0.00, +TSGR FG,SKC,-99.99,VWS V12.07,2013-01-20 04:25:00,
2013-01-19 22:30:00,25.0,12.3,29.73,West,265,4.0,15.0,58,0.00, +TSGR FG,SKC,-99.99,VWS V12.07,2013-01-20 04:30:00,
2013-01-19 22:40:00,24.3,12.4,29.75,West,270,8.0,20.0,60,0.00, +TSGR FG,SKC,-99.99,VWS V12.07,2013-01-20 04:40:00,
2013-01-19 22:45:00,24.2,12.3,29.75,West,273,4.0,14.0,60,0.00, +TSGR FG,SKC,-99.99,VWS V12.07,2013-01-20 04:45:00,
2013-01-19 22:50:00,24.1,12.2,29.76,NW,306,5.0,14.0,60,0.00, +TSGR FG,SKC,-99.99,VWS V12.07,2013-01-20 04:50:00,
2013-01-19 22:55:00,24.0,12.1,29.77,WNW,282,7.0,13.0,60,0.00, +TSGR FG,SKC,-99.99,VWS V12.07,2013-01-20 04:55:00,
2013-01-19 23:05:00,23.3,11.9,29.78,WNW,290,17.0,17.0,61,0.00, +TSGR FG,SKC,-99.99,VWS V12.07,2013-01-20 05:05:00,
2013-01-19 23:10:00,23.1,11.7,29.78,WSW,251,6.0,17.0,61,0.00, +TSGR FG,SKC,-99.99,VWS V12.07,2013-01-20 05:10:00,
2013-01-19 23:15:00,22.9,11.5,29.78,WNW,297,8.0,16.0,61,0.00, +TSGR FG,SKC,-99.99,VWS V12.07,2013-01-20 05:15:00,
2013-01-19 23:20:00,22.7,10.9,29.79,NW,315,4.0,16.0,60,0.00, +TSGR FG,SKC,-99.99,VWS V12.07,2013-01-20 05:20:00,
2013-01-19 23:25:00,22.6,11.2,29.79,SSW,212,6.0,11.0,61,0.00, +TSGR FG,SKC,-99.99,VWS V12.07,2013-01-20 05:25:00,
2013-01-19 23:30:00,22.1,12.8,29.80,SW,229,4.0,17.0,67,0.00, +TSGR FG,SKC,-99.99,VWS V12.07,2013-01-20 05:30:00,
2013-01-19 23:40:00,21.3,13.7,29.80,WNW,299,10.0,12.0,72,0.00, +TSGR FG,SKC,-99.99,VWS V12.07,2013-01-20 05:40:00,
2013-01-19 23:45:00,20.9,11.3,29.81,NE,34,7.0,17.0,66,0.00, +TSGR FG,SKC,-99.99,VWS V12.07,2013-01-20 05:45:00,
2013-01-19 23:50:00,20.5,10.3,29.81,NW,325,8.0,17.0,64,0.00, +TSGR FG,SKC,-99.99,VWS V12.07,2013-01-20 05:50:00,
2013-01-19 23:55:00,20.3,9.7,29.83,West,280,6.0,17.0,63,0.00, +TSGR FG,SKC,-99.99,VWS V12.07,2013-01-20 05:55:00,